Wetbulb
43.51 44.56 43.10 41.61 39.71 40.09 40.32 40.25 40.52 40.41 40.64 39.31 38.62 39.21 39.74 38.88 37.81 37.06 36.16 35.41 34.87 35.34
42.52 43.44 42.35 41.88 41.71 41.10 40.99 41.04 40.68 40.13 39.72 38.16 37.55 36.34 37.13 37.61 37.37 37.16 36.26 35.76 34.54 34.27
43.56 43.11 41.89 40.96 40.79 40.91 41.26 41.62 40.17 39.62 39.43 37.44 36.50 37.22 37.02 37.68 38.59 36.51 35.15 34.97 34.41 33.45
41.08 41.55 41.04 41.33 41.35 41.20 41.22 40.40 40.29 39.68 38.58 36.75 36.60 36.90 36.14 35.09 34.87 34.51 34.35 34.25 33.95 33.70
41.07 41.42 40.65 40.29 41.28 41.04 40.35 39.86 38.08 37.92 36.98 36.86 37.73 37.14 35.59 34.07 34.65 33.98 33.55 32.83 32.87 32.85
40.92 40.88 40.75 39.58 39.04 38.34 37.85 37.34 36.97 36.75 36.48 37.26 37.49 36.40 34.78 34.26 34.46 34.23 33.53 33.26 32.35 32.53
41.34 41.92 41.59 41.02 38.13 37.94 37.46 36.41 35.88 36.55 37.20 38.10 36.31 36.23 36.02 34.79 33.07 32.56 32.63 32.34 32.01 31.58
43.44 42.71 41.96 40.31 38.56 37.25 37.00 37.00 36.75 37.15 37.86 36.46 36.20 36.66 35.14 34.09 32.09 31.04 30.51 30.30 29.83 28.67
43.47 41.68 39.43 38.74 38.06 37.18 37.86 38.40 37.68 37.54 36.77 35.35 36.68 36.44 36.94 34.01 30.88 30.59 29.60 28.85 28.18 27.39
40.57 38.68 37.74 37.55 37.55 37.45 37.11 37.54 37.31 36.66 36.16 35.71 34.87 35.99 36.85 35.35 29.85 28.93 28.32 27.72 27.43 26.82
38.26 37.70 38.08 37.89 37.43 37.42 38.05 37.42 36.42 35.34 35.11 34.18 34.66 35.55 35.90 34.22 28.64 27.69 27.06 27.29 26.38 25.56
37.99 37.27 37.61 37.19 37.35 38.02 37.56 35.91 34.95 34.30 33.35 32.93 32.52 35.01 35.15 32.11 26.31 26.10 26.44 27.76 27.07 26.39
38.69 38.28 37.68 37.74 37.71 37.69 36.05 34.38 33.44 32.17 31.82 32.67 30.57 33.23 34.86 31.85 25.38 25.67 26.28 26.39 27.05 31.14
40.39 39.63 38.69 37.96 37.35 36.08 33.51 31.37 28.93 29.10 29.28 29.63 30.02 29.98 34.17 34.22 26.71 26.88 26.69 26.30 25.72 26.12
MSLP
1019.95 1020.63 1021.40 1022.08 1022.86 1023.40 1023.85 1024.30 1024.63 1024.66 1025.02 1025.56 1025.78 1025.78 1026.14 1026.18 1026.43 1026.61 1026.74 1026.82 1026.86 1026.82
1019.74 1020.34 1021.11 1021.91 1022.44 1023.01 1023.48 1023.80 1024.36 1024.58 1025.04 1025.48 1025.49 1025.73 1025.89 1026.03 1026.10 1026.31 1026.47 1026.51 1026.44 1026.38
1019.18 1019.89 1020.68 1021.40 1021.96 1022.28 1022.73 1022.98 1023.71 1024.05 1024.74 1025.00 1025.10 1025.24 1025.33 1025.54 1025.60 1025.83 1025.92 1025.92 1026.01 1026.03
1019.19 1019.89 1020.61 1021.20 1021.76 1022.25 1022.62 1022.70 1023.45 1023.73 1024.22 1024.57 1024.70 1024.86 1025.21 1025.41 1025.41 1025.50 1025.61 1025.55 1025.60 1025.71
1019.22 1019.87 1020.44 1020.84 1021.24 1021.59 1022.13 1022.39 1023.07 1023.53 1023.95 1024.16 1024.41 1024.52 1024.73 1024.88 1024.94 1025.07 1025.25 1025.19 1025.32 1025.41
1019.10 1019.62 1019.97 1020.36 1020.83 1021.35 1021.75 1022.37 1022.86 1023.27 1023.49 1023.70 1023.84 1024.04 1024.13 1024.29 1024.44 1024.49 1024.67 1024.87 1025.06 1025.10
1018.62 1018.98 1019.47 1019.98 1020.49 1021.08 1021.69 1022.34 1022.70 1022.89 1023.10 1023.30 1023.38 1023.53 1023.47 1023.63 1023.97 1024.14 1024.28 1024.52 1024.66 1024.82
1018.15 1018.56 1019.14 1019.87 1020.61 1021.38 1021.99 1022.43 1022.74 1023.12 1023.12 1023.08 1023.15 1022.94 1022.94 1023.01 1023.37 1023.83 1024.11 1024.32 1024.42 1024.55
1018.07 1018.87 1019.74 1020.45 1021.15 1021.72 1022.16 1022.66 1023.08 1023.06 1023.02 1022.94 1022.69 1022.38 1022.28 1022.45 1022.94 1023.39 1023.74 1024.00 1024.09 1024.26
1018.71 1019.46 1020.25 1020.90 1021.44 1021.84 1022.21 1022.40 1022.75 1022.86 1022.80 1022.43 1022.24 1022.06 1021.87 1021.90 1022.29 1022.92 1023.24 1023.45 1023.66 1023.78
1018.99 1019.90 1020.65 1021.21 1021.80 1022.36 1022.74 1022.74 1022.29 1022.39 1022.35 1022.14 1021.93 1021.75 1021.68 1021.76 1022.04 1022.51 1022.78 1023.06 1023.24 1023.41
1019.66 1020.42 1021.07 1021.66 1022.25 1022.50 1022.35 1022.07 1022.11 1022.22 1022.09 1021.96 1021.75 1021.52 1021.41 1021.68 1021.92 1022.31 1022.49 1022.62 1022.77 1022.85
1020.64 1021.08 1021.51 1021.86 1022.02 1022.22 1022.05 1022.09 1022.07 1021.94 1021.80 1021.74 1021.51 1021.16 1021.16 1021.33 1021.58 1022.01 1022.13 1022.13 1022.18 1022.09
1020.95 1021.25 1021.53 1021.90 1022.09 1022.12 1021.93 1021.98 1022.00 1021.90 1021.70 1021.52 1021.17 1020.86 1020.77 1020.98 1021.18 1021.24 1021.48 1021.71 1021.69 1021.54
Wind_Speed
9 7 7 7 6 5 5 5 4 6 5 4 2 2 3 2 3 3 3 4 4 3
9 11 9 9 8 6 7 6 6 6 5 5 4 4 4 4 4 4 3 4 5 4
11 10 10 10 11 11 10 9 8 7 6 6 4 5 5 4 4 3 3 3 4 3
9 9 10 10 9 9 7 8 7 7 6 5 5 4 3 4 4 4 4 3 4 4
10 10 10 9 10 10 10 7 8 7 6 6 5 5 6 6 5 6 5 5 3 3
10 10 11 10 9 8 7 7 7 6 7 6 6 6 6 6 6 6 6 6 6 6
12 13 11 10 8 8 6 6 6 7 6 6 6 6 6 6 6 6 6 6 6 5
10 9 8 6 5 6 6 5 4 3 5 5 5 6 7 7 7 7 6 5 5 5
6 6 7 7 6 6 5 3 3 4 5 6 5 9 11 9 6 6 7 6 6 5
9 10 9 8 7 6 5 3 4 5 6 6 6 9 10 13 6 6 6 6 5 4
13 12 9 8 6 4 2 4 3 5 5 5 6 9 10 12 7 6 6 6 6 6
12 10 7 5 3 1 3 3 4 4 6 6 7 9 11 9 5 5 7 6 6 6
7 6 5 3 1 3 4 4 4 5 5 7 7 7 11 11 4 5 5 5 6 12
5 6 4 2 3 6 5 4 5 6 6 6 6 8 13 16 6 7 5 6 5 5
Wind_Direction
146 150 147 144 140 132 129 135 145 120 108 133 137 142 200 199 195 200 218 220 223 236
143 147 146 141 139 143 145 142 146 145 151 175 180 181 205 206 208 207 221 236 247 223
158 149 147 149 158 162 163 156 166 155 172 189 191 200 201 192 202 216 248 246 271 236
152 153 153 162 163 167 168 162 169 165 179 187 207 199 162 194 222 221 244 255 228 214
158 161 167 169 173 172 179 168 169 173 177 201 211 193 203 219 222 221 221 199 189 216
171 174 182 179 177 176 171 167 171 173 195 205 214 212 219 220 225 209 195 191 199 219
182 188 184 182 177 173 164 156 174 200 208 224 226 226 218 199 200 199 193 206 213 215
196 183 178 161 124 118 145 187 198 228 255 259 245 239 225 193 192 196 196 202 201 209
172 108 97 101 113 116 112 102 227 253 274 277 258 238 225 185 184 190 193 204 215 218
99 102 102 104 100 99 100 45 336 315 282 274 267 256 233 195 177 185 199 202 205 211
111 109 106 96 91 80 11 272 273 275 277 286 276 258 231 193 178 197 203 202 203 207
100 99 102 102 90 252 258 266 272 263 290 299 284 256 220 186 181 193 210 208 205 204
91 98 109 136 242 254 263 256 274 293 294 280 279 270 221 198 173 202 213 216 218 224
52 34 35 314 248 255 248 274 289 290 282 281 269 268 235 217 199 214 210 215 218 219